Location: Poughquag
(41.6090°N, 73.6820°W)
Time: 20:41:35
(UTC-05:00)

Hubble Space Telescope - Visible Passes

Search period start: 17 January 2019 00:00
Search period end: 27 January 2019 00:00
Orbit: 537 x 540 km, 28.5° (Epoch: 17 January)

Date Brightness Start Highest point End Pass type
(mag) Time Alt. Az. Time Alt. Az. Time Alt. Az.
17 Jan 3.6 05:50:50 10° S 05:51:22 10° SSE 05:51:54 10° SSE visible
18 Jan 3.4 05:39:28 10° S 05:40:46 11° S 05:42:05 10° SSE visible
19 Jan 3.3 05:28:31 10° SSW 05:30:10 12° S 05:31:50 10° SSE visible
20 Jan 3.2 05:18:21 11° SSW 05:19:35 13° S 05:21:27 10° SSE visible
21 Jan 3.2 05:08:34 13° S 05:09:00 13° S 05:10:57 10° SSE visible
21 Jan 3.5 06:48:43 10° SSW 06:49:22 10° SSW 06:50:02 10° S visible
22 Jan 3.2 04:58:45 13° S 04:58:45 13° S 05:00:23 10° SSE visible
23 Jan 3.4 04:48:54 12° SSE 04:48:54 12° SSE 04:49:44 10° SSE visible
